Time,TemperatureF,DewpointF,PressureIn,WindDirection,WindDirectionDegrees,WindSpeedMPH,WindSpeedGustMPH,Humidity,HourlyPrecipIn,Conditions,Clouds,dailyrainin,SolarRadiationWatts/m^2,SoftwareType,DateUTC
2013-03-10 00:02:00,41.0,27.0,-100.00,NNE,29,0.0,2.0,57,0.00,,,0.00,0.000000,,2013-03-10 05:02:00,
2013-03-10 00:22:00,40.0,28.0,-100.00,ESE,116,1.0,2.0,63,0.00,,,0.00,0.000000,,2013-03-10 05:22:00,
2013-03-10 00:32:00,40.0,28.0,-100.00,ESE,116,1.0,2.0,63,0.00,,,0.00,0.000000,,2013-03-10 05:32:00,
2013-03-10 00:42:00,40.0,28.0,-100.00,ESE,116,1.0,2.0,63,0.00,,,0.00,0.000000,,2013-03-10 05:42:00,
2013-03-10 00:52:00,40.0,28.0,-100.00,ESE,116,1.0,2.0,63,0.00,,,0.00,0.000000,,2013-03-10 05:52:00,
2013-03-10 01:02:00,40.0,28.0,-100.00,ESE,116,1.0,2.0,63,0.00,,,0.00,0.000000,,2013-03-10 06:02:00,
2013-03-10 01:32:00,37.0,28.0,-100.00,NNE,30,1.0,1.0,69,0.00,,,0.00,0.000000,,2013-03-10 06:32:00,
2013-03-10 01:42:00,37.0,28.0,-100.00,NNE,30,1.0,1.0,69,0.00,,,0.00,0.000000,,2013-03-10 06:42:00,
2013-03-10 01:52:00,37.0,28.0,-100.00,NNE,30,1.0,1.0,69,0.00,,,0.00,0.000000,,2013-03-10 06:52:00,
2013-03-10 03:02:00,37.0,28.0,-100.00,NNE,30,1.0,1.0,69,0.00,,,0.00,0.000000,,2013-03-10 07:02:00,
2013-03-10 03:32:00,33.0,27.0,-100.00,ENE,62,1.0,3.0,78,0.00,,,0.00,0.000000,,2013-03-10 07:32:00,
2013-03-10 03:42:00,33.0,27.0,-100.00,ENE,62,1.0,3.0,78,0.00,,,0.00,0.000000,,2013-03-10 07:42:00,
2013-03-10 03:52:00,33.0,27.0,-100.00,ENE,62,1.0,3.0,78,0.00,,,0.00,0.000000,,2013-03-10 07:52:00,
2013-03-10 04:01:00,33.0,27.0,-100.00,ENE,62,1.0,3.0,78,0.00,,,0.00,0.000000,,2013-03-10 08:01:00,
2013-03-10 04:32:00,31.0,26.0,-100.00,NE,49,2.0,3.0,80,0.00,,,0.00,0.000000,,2013-03-10 08:32:00,
2013-03-10 04:42:00,31.0,26.0,-100.00,NE,49,2.0,3.0,80,0.00,,,0.00,0.000000,,2013-03-10 08:42:00,
2013-03-10 04:52:00,31.0,26.0,-100.00,NE,49,2.0,3.0,80,0.00,,,0.00,0.000000,,2013-03-10 08:52:00,
2013-03-10 05:02:00,31.0,26.0,-100.00,NE,49,2.0,3.0,80,0.00,,,0.00,0.000000,,2013-03-10 09:02:00,
2013-03-10 05:32:00,30.0,25.0,-100.00,NNE,25,1.0,3.0,81,0.00,,,0.00,0.000000,,2013-03-10 09:32:00,
2013-03-10 05:42:00,30.0,25.0,-100.00,NNE,25,1.0,3.0,81,0.00,,,0.00,0.000000,,2013-03-10 09:42:00,
2013-03-10 05:52:00,30.0,25.0,-100.00,NNE,25,1.0,3.0,81,0.00,,,0.00,0.000000,,2013-03-10 09:52:00,
2013-03-10 06:01:00,30.0,25.0,-100.00,NNE,25,1.0,3.0,81,0.00,,,0.00,0.000000,,2013-03-10 10:01:00,
2013-03-10 06:32:00,32.0,27.0,-100.00,ENE,58,1.0,2.0,81,0.00,,,0.00,0.000000,,2013-03-10 10:32:00,
2013-03-10 06:42:00,32.0,27.0,-100.00,ENE,58,1.0,2.0,81,0.00,,,0.00,0.000000,,2013-03-10 10:42:00,
2013-03-10 06:52:00,32.0,27.0,-100.00,ENE,58,1.0,2.0,81,0.00,,,0.00,0.000000,,2013-03-10 10:52:00,
2013-03-10 07:01:00,32.0,27.0,-100.00,ENE,58,1.0,2.0,81,0.00,,,0.00,0.000000,,2013-03-10 11:01:00,
2013-03-10 10:32:00,47.0,26.0,-100.00,SW,234,7.0,17.0,43,-99.99,,,0.00,148.000000,,2013-03-10 14:32:00,
2013-03-10 10:42:00,47.0,26.0,-100.00,SW,234,7.0,17.0,43,-99.99,,,0.00,148.000000,,2013-03-10 14:42:00,
2013-03-10 10:52:00,47.0,26.0,-100.00,SW,234,7.0,17.0,43,-99.99,,,0.00,148.000000,,2013-03-10 14:52:00,
2013-03-10 11:01:00,47.0,26.0,-100.00,SW,234,7.0,17.0,43,-99.99,,,0.00,148.000000,,2013-03-10 15:01:00,
2013-03-10 11:32:00,48.0,27.0,-100.00,SW,227,7.0,14.0,43,0.00,,,0.00,224.000000,,2013-03-10 15:32:00,
2013-03-10 11:42:00,48.0,27.0,-100.00,SW,227,7.0,14.0,43,0.00,,,0.00,224.000000,,2013-03-10 15:42:00,
2013-03-10 11:52:00,48.0,27.0,-100.00,SW,227,7.0,14.0,43,0.00,,,0.00,224.000000,,2013-03-10 15:52:00,
2013-03-10 12:02:00,48.0,27.0,-100.00,SW,227,7.0,14.0,43,0.00,,,0.00,224.000000,,2013-03-10 16:02:00,
2013-03-10 12:22:00,53.0,29.0,-100.00,WSW,252,7.0,13.0,39,0.00,,,0.00,445.000000,,2013-03-10 16:22:00,
2013-03-10 12:32:00,53.0,29.0,-100.00,WSW,252,7.0,13.0,39,0.00,,,0.00,445.000000,,2013-03-10 16:32:00,
2013-03-10 12:42:00,53.0,29.0,-100.00,WSW,252,7.0,13.0,39,0.00,,,0.00,445.000000,,2013-03-10 16:42:00,
2013-03-10 12:52:00,53.0,29.0,-100.00,WSW,252,7.0,13.0,39,0.00,,,0.00,445.000000,,2013-03-10 16:52:00,
2013-03-10 13:01:00,53.0,29.0,-100.00,WSW,252,7.0,13.0,39,0.00,,,0.00,445.000000,,2013-03-10 17:01:00,
2013-03-10 15:32:00,61.0,29.0,-100.00,SSE,163,5.0,15.0,30,-99.99,,,0.00,572.000000,,2013-03-10 19:32:00,
2013-03-10 15:42:00,61.0,29.0,-100.00,SSE,163,5.0,15.0,30,-99.99,,,0.00,572.000000,,2013-03-10 19:42:00,
2013-03-10 15:53:00,61.0,29.0,-100.00,SSE,163,5.0,15.0,30,-99.99,,,0.00,572.000000,,2013-03-10 19:53:00,
2013-03-10 16:02:00,61.0,29.0,-100.00,SSE,163,5.0,15.0,30,-99.99,,,0.00,572.000000,,2013-03-10 20:02:00,
2013-03-10 16:33:00,59.0,27.0,-100.00,South,175,7.0,18.0,29,0.00,,,0.00,483.000000,,2013-03-10 20:33:00,
2013-03-10 16:43:00,59.0,27.0,-100.00,South,175,7.0,18.0,29,0.00,,,0.00,483.000000,,2013-03-10 20:43:00,
2013-03-10 16:53:00,59.0,27.0,-100.00,South,175,7.0,18.0,29,0.00,,,0.00,483.000000,,2013-03-10 20:53:00,
2013-03-10 17:02:00,59.0,27.0,-100.00,South,175,7.0,18.0,29,0.00,,,0.00,483.000000,,2013-03-10 21:02:00,
2013-03-10 17:33:00,57.0,27.0,-100.00,South,179,5.0,15.0,31,0.00,,,0.00,308.000000,,2013-03-10 21:33:00,
2013-03-10 17:43:00,57.0,27.0,-100.00,South,179,5.0,15.0,31,0.00,,,0.00,308.000000,,2013-03-10 21:43:00,
2013-03-10 17:53:00,57.0,27.0,-100.00,South,179,5.0,15.0,31,0.00,,,0.00,308.000000,,2013-03-10 21:53:00,
2013-03-10 18:03:00,57.0,27.0,-100.00,South,179,5.0,15.0,31,0.00,,,0.00,308.000000,,2013-03-10 22:03:00,
2013-03-10 18:33:00,55.0,27.0,-100.00,South,174,5.0,13.0,34,0.00,,,0.00,169.000000,,2013-03-10 22:33:00,
2013-03-10 18:43:00,55.0,27.0,-100.00,South,174,5.0,13.0,34,0.00,,,0.00,169.000000,,2013-03-10 22:43:00,
2013-03-10 18:53:00,55.0,27.0,-100.00,South,174,5.0,13.0,34,0.00,,,0.00,169.000000,,2013-03-10 22:53:00,
2013-03-10 19:03:00,55.0,27.0,-100.00,South,174,5.0,13.0,34,0.00,,,0.00,169.000000,,2013-03-10 23:03:00,
2013-03-10 19:33:00,54.0,28.0,-100.00,SW,232,4.0,13.0,36,0.00,,,0.00,84.000000,,2013-03-10 23:33:00,
2013-03-10 19:43:00,54.0,28.0,-100.00,SW,232,4.0,13.0,36,0.00,,,0.00,84.000000,,2013-03-10 23:43:00,
2013-03-10 19:53:00,54.0,28.0,-100.00,SW,232,4.0,13.0,36,0.00,,,0.00,84.000000,,2013-03-10 23:53:00,
2013-03-10 20:02:00,54.0,28.0,-100.00,SW,232,4.0,13.0,36,0.00,,,0.00,84.000000,,2013-03-11 00:02:00,
2013-03-10 20:33:00,52.0,28.0,-100.00,WSW,240,7.0,13.0,40,0.00,,,0.00,7.000000,,2013-03-11 00:33:00,
2013-03-10 20:43:00,52.0,28.0,-100.00,WSW,240,7.0,13.0,40,0.00,,,0.00,7.000000,,2013-03-11 00:43:00,
2013-03-10 20:53:00,52.0,28.0,-100.00,WSW,240,7.0,13.0,40,0.00,,,0.00,7.000000,,2013-03-11 00:53:00,
2013-03-10 21:03:00,52.0,28.0,-100.00,WSW,240,7.0,13.0,40,0.00,,,0.00,7.000000,,2013-03-11 01:03:00,
2013-03-10 21:33:00,51.0,28.0,-100.00,SW,234,8.0,13.0,41,0.00,,,0.00,0.000000,,2013-03-11 01:33:00,
2013-03-10 21:43:00,51.0,28.0,-100.00,SW,234,8.0,13.0,41,0.00,,,0.00,0.000000,,2013-03-11 01:43:00,
2013-03-10 21:53:00,51.0,28.0,-100.00,SW,234,8.0,13.0,41,0.00,,,0.00,0.000000,,2013-03-11 01:53:00,
2013-03-10 22:02:00,51.0,28.0,-100.00,SW,234,8.0,13.0,41,0.00,,,0.00,0.000000,,2013-03-11 02:02:00,
2013-03-10 22:32:00,50.0,29.0,-100.00,WSW,239,8.0,16.0,44,0.00,,,0.00,0.000000,,2013-03-11 02:32:00,
2013-03-10 22:42:00,50.0,29.0,-100.00,WSW,239,8.0,16.0,44,0.00,,,0.00,0.000000,,2013-03-11 02:42:00,
2013-03-10 22:53:00,50.0,29.0,-100.00,WSW,239,8.0,16.0,44,0.00,,,0.00,0.000000,,2013-03-11 02:53:00,
2013-03-10 23:02:00,50.0,29.0,-100.00,WSW,239,8.0,16.0,44,0.00,,,0.00,0.000000,,2013-03-11 03:02:00,
2013-03-10 23:32:00,49.0,30.0,-100.00,WSW,253,7.0,13.0,47,0.00,,,0.00,0.000000,,2013-03-11 03:32:00,
2013-03-10 23:43:00,49.0,30.0,-100.00,WSW,253,7.0,13.0,47,0.00,,,0.00,0.000000,,2013-03-11 03:43:00,
2013-03-10 23:53:00,49.0,30.0,-100.00,WSW,253,7.0,13.0,47,0.00,,,0.00,0.000000,,2013-03-11 03:53:00,